Yuma MCAS, AZ

12:10 AM MST on December 15, 2017 (GMT -0700)
Yuma Marine Corps Air Station

Weather History for KNYL - April, 2014

Change the Weather History Date:

Wednesday, April 9, 2014

  Actual Average Record
Temperature  
Mean Temperature 82 °F 71 °F  
Max Temperature 99 °F 85 °F 102 °F (1989)
Min Temperature 65 °F 58 °F 43 °F (1953)
Degree Days  
Heating Degree Days 0 1  
Month to date heating degree days 5 9  
Since 1 July heating degree days 370 682  
Cooling Degree Days 17 7  
Month to date cooling degree days 51 55  
Year to date cooling degree days 350 208  
Growing Degree Days 32 (Base 50)    
Moisture  
Dew Point 26 °F    
Average Humidity 17    
Maximum Humidity 29    
Minimum Humidity 5    
Precipitation  
Precipitation 0.00 in 0.01 in 0.26 in (1975)
Month to date precipitation 0.00 0.07  
Year to date precipitation 0.07 1.16  
Sea Level Pressure  
Sea Level Pressure 29.92 in    
Wind  
Wind Speed 4 mph (NNW)    
Max Wind Speed 12 mph    
Max Gust Speed 14 mph    
Visibility 10 miles    
Events      
T = Trace of Precipitation, MM = Missing Value Source: NWS Daily Summary

Daily Weather History Graph

Daily Weather History Graph

Search for Another Location

Airport or City:

Trip Planner

Search our weather history database for the weather conditions in past years. The results will help you decide how hot, cold, wet, or windy it might be!

Date:

Astronomy

Apr. 09, 2014 Rise Set
Actual Time 6:16 AM MST 7:04 PM MST
Civil Twilight 5:51 AM MST 7:29 PM MST
Nautical Twilight 5:21 AM MST 7:58 PM MST
Astronomical Twilight 4:51 AM MST 8:29 PM MST
Moon 2:12 PM MST (4/9) 2:50 AM MST (4/9)
Length of Visible Light 13h 38m
Length of Day
12h 48m
Waxing Gibbous, 72% of the Moon is Illuminated
Apr 9
Waxing Gibbous
Apr 15
Full
Apr 22
Last Quarter
Apr 28
New
May 6
First Quarter

Hourly Weather History & Observations

Time (MST) Temp. Dew Point Humidity Pressure Visibility Wind Dir Wind Speed Gust Speed Precip Events Conditions
12:57 AM 71.1 °F 28.0 °F 20% 29.96 in 10.0 mi Calm Calm - N/A   Clear
1:57 AM 69.1 °F 28.0 °F 22% 29.95 in 10.0 mi ENE 3.5 mph - N/A   Clear
2:57 AM 66.0 °F 27.0 °F 23% 29.93 in 10.0 mi NNE 3.5 mph - N/A   Clear
3:57 AM 66.9 °F 33.1 °F 28% 29.93 in 10.0 mi Calm Calm - N/A   Clear
4:57 AM 66.9 °F 33.1 °F 28% 29.92 in 10.0 mi NNE 5.8 mph - N/A   Clear
5:57 AM 68.0 °F 26.1 °F 21% 29.94 in 10.0 mi NE 4.6 mph - N/A   Partly Cloudy
6:57 AM 68.0 °F 26.1 °F 21% 29.96 in 10.0 mi NE 6.9 mph - N/A   Scattered Clouds
7:57 AM 73.0 °F 24.1 °F 16% 29.97 in 10.0 mi NE 9.2 mph - N/A   Mostly Cloudy
8:57 AM 79.0 °F 27.0 °F 15% 29.98 in 10.0 mi NE 4.6 mph - N/A   Mostly Cloudy
9:57 AM 86.0 °F 28.9 °F 13% 29.99 in 10.0 mi Calm Calm - N/A   Mostly Cloudy
10:57 AM 90.0 °F 27.0 °F 10% 29.99 in 10.0 mi Calm Calm - N/A   Mostly Cloudy
11:57 AM 93.9 °F 30.0 °F 10% 29.97 in 10.0 mi Variable 4.6 mph - N/A   Mostly Cloudy
12:57 PM 96.1 °F 19.9 °F 6% 29.95 in 10.0 mi West 5.8 mph - N/A   Mostly Cloudy
1:57 PM 97.0 °F 21.0 °F 6% 29.93 in 10.0 mi Variable 3.5 mph - N/A   Mostly Cloudy
2:57 PM 97.0 °F 21.0 °F 6% 29.90 in 10.0 mi Variable 4.6 mph - N/A   Mostly Cloudy
3:57 PM 99.0 °F 15.1 °F 5% 29.87 in 10.0 mi WNW 6.9 mph - N/A   Mostly Cloudy
4:57 PM 97.0 °F 14.0 °F 5% 29.86 in 10.0 mi West 4.6 mph - N/A   Mostly Cloudy
5:57 PM 96.1 °F 18.0 °F 6% 29.86 in 10.0 mi West 5.8 mph - N/A   Mostly Cloudy
6:57 PM 91.9 °F 32.0 °F 12% 29.85 in 10.0 mi West 3.5 mph - N/A   Mostly Cloudy
7:57 PM 88.0 °F 30.0 °F 12% 29.86 in 10.0 mi WSW 5.8 mph - N/A   Mostly Cloudy
8:57 PM 87.1 °F 27.0 °F 11% 29.88 in 10.0 mi SW 6.9 mph - N/A   Mostly Cloudy
9:57 PM 81.0 °F 30.9 °F 16% 29.89 in 10.0 mi SW 3.5 mph - N/A   Mostly Cloudy
10:57 PM 81.0 °F 23.0 °F 12% 29.90 in 10.0 mi SSE 4.6 mph - N/A   Clear
11:57 PM 80.1 °F 21.9 °F 12% 29.90 in 10.0 mi Calm Calm - N/A   Clear